EWG25P EDDL-LPPT

Flight info

Callsign EWG25P
Flight time N/A
Altitude 24000
Route MODRU7Z/05R MODRU Z283 LNO/N0445F340 DCT RASCA DCT FAMEN/N0448F350 DCT ESTOC DCT PON DCT DITAL DCT GODIX DCT DIDAK DCT KURIS DCT TERPO DCT ERIGA DCT FUJTI DCT ATLEN DCT ABUPI DCT XAMAX
Aircraft A321/M-SDE3FGHIRWY/LB1

Departure

Time 2026-05-05 14:34
Airport Düsseldorf Airport (EDDL)

Arrival

Time N/A
Airport Lisbon Humberto Delgado Airport (LPPT)
Time Latitude Longitude Altitude Speed Heading
2026-05-05 13:56 51.28068 6.76528 129 ft 0 kts 96°
2026-05-05 13:57 51.28068 6.76527 129 ft 0 kts 96°
2026-05-05 14:03 51.28069 6.76527 158 ft 0 kts 96°
2026-05-05 14:03 51.28068 6.76527 158 ft 0 kts 96°
2026-05-05 14:03 51.28069 6.76527 158 ft 0 kts 96°
2026-05-05 14:17 51.28069 6.76526 130 ft 0 kts 96°
2026-05-05 14:21 51.28069 6.76518 130 ft 4 kts 97°
2026-05-05 14:22 51.28074 6.76475 126 ft 4 kts 104°
2026-05-05 14:22 51.28082 6.76435 126 ft 4 kts 115°
2026-05-05 14:22 51.28094 6.76401 126 ft 2 kts 126°
2026-05-05 14:22 51.28110 6.76377 129 ft 4 kts 180°
2026-05-05 14:23 51.28126 6.76392 125 ft 4 kts 245°
2026-05-05 14:23 51.28132 6.76427 130 ft 4 kts 303°
2026-05-05 14:23 51.28113 6.76441 128 ft 4 kts 359°
2026-05-05 14:23 51.28089 6.76441 125 ft 4 kts 357°
2026-05-05 14:24 51.28064 6.76449 126 ft 3 kts 327°
2026-05-05 14:24 51.28060 6.76453 126 ft 1 kts 327°
2026-05-05 14:27 51.28061 6.76452 130 ft 1 kts 327°
2026-05-05 14:28 51.28066 6.76447 130 ft 0 kts 327°
2026-05-05 14:28 51.28071 6.76442 127 ft 2 kts 327°
2026-05-05 14:28 51.28084 6.76428 128 ft 3 kts 327°
2026-05-05 14:28 51.28102 6.76408 128 ft 4 kts 323°
2026-05-05 14:29 51.28123 6.76373 130 ft 5 kts 304°
2026-05-05 14:29 51.28141 6.76322 129 ft 6 kts 300°
2026-05-05 14:29 51.28169 6.76267 129 ft 7 kts 319°
2026-05-05 14:29 51.28198 6.76190 129 ft 9 kts 269°
2026-05-05 14:30 51.28167 6.76099 129 ft 10 kts 234°
2026-05-05 14:30 51.28126 6.76011 127 ft 10 kts 233°
2026-05-05 14:30 51.28080 6.75917 126 ft 11 kts 232°
2026-05-05 14:30 51.28031 6.75814 126 ft 12 kts 232°
2026-05-05 14:31 51.27979 6.75704 125 ft 13 kts 232°
2026-05-05 14:31 51.27955 6.75575 128 ft 11 kts 300°
2026-05-05 14:31 51.27991 6.75530 125 ft 0 kts 331°
2026-05-05 14:31 51.27992 6.75528 124 ft 1 kts 331°
2026-05-05 14:32 51.28015 6.75511 125 ft 6 kts 337°
2026-05-05 14:32 51.28066 6.75502 124 ft 8 kts
2026-05-05 14:32 51.28113 6.75535 124 ft 7 kts 36°
2026-05-05 14:32 51.28145 6.75588 124 ft 0 kts 51°
2026-05-05 14:33 51.28162 6.75622 127 ft 21 kts 51°
2026-05-05 14:33 51.28408 6.76135 128 ft 93 kts 52°
2026-05-05 14:34 51.28931 6.77228 133 ft 152 kts 52°
2026-05-05 14:34 51.29571 6.78580 811 ft 147 kts 48°
2026-05-05 14:34 51.30163 6.79859 1624 ft 143 kts 52°
2026-05-05 14:34 51.30797 6.81213 1924 ft 162 kts 52°
2026-05-05 14:35 51.31524 6.82734 2141 ft 182 kts 52°
2026-05-05 14:35 51.32341 6.84442 2302 ft 204 kts 51°
2026-05-05 14:35 51.33252 6.86353 2432 ft 229 kts 52°
2026-05-05 14:35 51.34243 6.88508 2733 ft 249 kts 52°
2026-05-05 14:36 51.35546 6.90355 3253 ft 257 kts 24°
2026-05-05 14:36 51.37291 6.91041 3861 ft 262 kts
2026-05-05 14:36 51.39104 6.91500 4523 ft 266 kts
2026-05-05 14:36 51.40947 6.91987 5154 ft 271 kts
2026-05-05 14:37 51.42824 6.92492 5776 ft 276 kts
2026-05-05 14:37 51.44741 6.93012 6398 ft 281 kts
2026-05-05 14:37 51.46688 6.93400 7016 ft 284 kts 358°
2026-05-05 14:37 51.48620 6.92717 7563 ft 287 kts 332°
2026-05-05 14:38 51.50208 6.90853 8121 ft 288 kts 308°
2026-05-05 14:38 51.51226 6.88119 8703 ft 286 kts 288°
2026-05-05 14:38 51.51940 6.85114 9354 ft 289 kts 288°
2026-05-05 14:38 51.52658 6.82079 9973 ft 292 kts 289°
2026-05-05 14:39 51.53398 6.78956 10194 ft 310 kts 288°
2026-05-05 14:39 51.54190 6.75614 10326 ft 329 kts 289°
2026-05-05 14:39 51.54927 6.72044 10474 ft 344 kts 280°
2026-05-05 14:39 51.55197 6.68194 10860 ft 349 kts 268°
2026-05-05 14:40 51.54931 6.64315 11364 ft 351 kts 254°
2026-05-05 14:40 51.54143 6.60614 11887 ft 352 kts 243°
2026-05-05 14:40 51.53025 6.57104 12420 ft 354 kts 240°
2026-05-05 14:40 51.51887 6.53578 12946 ft 357 kts 240°
2026-05-05 14:41 51.50734 6.50021 13467 ft 361 kts 241°
2026-05-05 14:41 51.49569 6.46433 13963 ft 364 kts 240°
2026-05-05 14:41 51.48397 6.42823 14454 ft 366 kts 240°
2026-05-05 14:41 51.47124 6.39282 14908 ft 367 kts 232°
2026-05-05 14:42 51.45438 6.36191 15360 ft 368 kts 221°
2026-05-05 14:42 51.43388 6.33741 15838 ft 369 kts 209°
2026-05-05 14:42 51.41101 6.32028 16324 ft 369 kts 199°
2026-05-05 14:42 51.38681 6.30607 16778 ft 371 kts 199°
2026-05-05 14:43 51.36241 6.29174 17242 ft 374 kts 199°
2026-05-05 14:43 51.33790 6.27732 17720 ft 376 kts 199°
2026-05-05 14:43 51.31321 6.26279 18172 ft 379 kts 199°
2026-05-05 14:43 51.28844 6.24822 18547 ft 381 kts 199°
2026-05-05 14:44 51.26348 6.23359 18951 ft 383 kts 199°
2026-05-05 14:44 51.23839 6.21887 19350 ft 384 kts 199°
2026-05-05 14:44 51.21323 6.20413 19769 ft 386 kts 199°
2026-05-05 14:44 51.18798 6.18936 20194 ft 387 kts 199°
2026-05-05 14:45 51.16252 6.17446 20596 ft 389 kts 199°
2026-05-05 14:45 51.13711 6.15961 21061 ft 389 kts 199°
2026-05-05 14:45 51.11163 6.14475 21474 ft 391 kts 199°
2026-05-05 14:45 51.08604 6.12990 21865 ft 392 kts 199°
2026-05-05 14:46 51.06059 6.11517 22248 ft 394 kts 199°
2026-05-05 14:46 51.03474 6.10021 22631 ft 396 kts 199°
2026-05-05 14:46 51.00954 6.08211 22995 ft 399 kts 208°
2026-05-05 14:46 50.98586 6.05887 23366 ft 401 kts 210°
2026-05-05 14:47 50.96209 6.03528 23683 ft 403 kts 210°
2026-05-05 14:47 50.93816 6.01176 23995 ft 405 kts 209°
2026-05-05 14:47 50.91377 5.98940 24303 ft 406 kts 207°
2026-05-05 14:47 50.88893 5.96809 24610 ft 407 kts 206°
2026-05-05 14:48 50.86372 5.94727 24912 ft 409 kts 206°
2026-05-05 14:48 50.83837 5.92653 25188 ft 410 kts 206°
2026-05-05 14:48 50.81304 5.90564 25487 ft 412 kts 206°
2026-05-05 14:48 50.78769 5.88428 25779 ft 414 kts 207°
2026-05-05 14:49 50.77091 5.86992 25974 ft 415 kts 207°
2026-05-05 14:49 50.73728 5.84083 26368 ft 417 kts 207°
2026-05-05 14:49 50.71181 5.81867 26649 ft 419 kts 207°
2026-05-05 14:49 50.68620 5.79644 26929 ft 421 kts 207°
2026-05-05 14:50 50.66882 5.78142 27127 ft 422 kts 207°
2026-05-05 14:50 50.64336 5.75952 27404 ft 423 kts 207°
2026-05-05 14:50 50.61734 5.73722 27691 ft 425 kts 208°
2026-05-05 14:50 50.59248 5.71184 27970 ft 428 kts 216°
2026-05-05 14:51 50.57043 5.68022 28244 ft 432 kts 226°
2026-05-05 14:51 50.55109 5.64389 28503 ft 434 kts 229°
2026-05-05 14:51 50.53193 5.60708 28756 ft 435 kts 229°
2026-05-05 14:51 50.51266 5.57027 29032 ft 437 kts 228°
2026-05-05 14:52 50.49322 5.53334 29181 ft 441 kts 228°
2026-05-05 14:52 50.47357 5.49615 29367 ft 443 kts 228°
2026-05-05 14:52 50.45386 5.45883 29574 ft 445 kts 228°
2026-05-05 14:52 50.43435 5.42187 29779 ft 446 kts 228°
2026-05-05 14:53 50.41451 5.38434 30023 ft 446 kts 228°
2026-05-05 14:53 50.39471 5.34693 30295 ft 445 kts 228°
2026-05-05 14:53 50.37489 5.30960 30552 ft 444 kts 227°
2026-05-05 14:53 50.35513 5.27248 30810 ft 443 kts 227°
2026-05-05 14:54 50.33542 5.23547 31070 ft 442 kts 227°
2026-05-05 14:54 50.31576 5.19852 31329 ft 441 kts 227°
2026-05-05 14:54 50.29612 5.16162 31577 ft 440 kts 227°
2026-05-05 14:54 50.27650 5.12480 31785 ft 441 kts 227°
2026-05-05 14:55 50.25687 5.08800 32031 ft 440 kts 227°
2026-05-05 14:55 50.23724 5.05129 32295 ft 440 kts 227°
2026-05-05 14:55 50.21780 5.01512 32479 ft 440 kts 227°
2026-05-05 14:55 50.19805 4.97849 32703 ft 440 kts 227°
2026-05-05 14:56 50.17833 4.94190 32932 ft 439 kts 227°
2026-05-05 14:56 50.15869 4.90544 33169 ft 439 kts 227°
2026-05-05 14:56 50.13907 4.86899 33407 ft 438 kts 227°
2026-05-05 14:56 50.11945 4.83260 33630 ft 437 kts 227°
2026-05-05 14:57 50.09986 4.79634 33869 ft 437 kts 226°
2026-05-05 14:57 50.08028 4.76024 34064 ft 437 kts 226°
2026-05-05 14:57 50.06064 4.72412 34256 ft 436 kts 226°
2026-05-05 14:57 50.04107 4.68808 34411 ft 437 kts 227°
2026-05-05 14:58 50.02169 4.65236 34597 ft 436 kts 227°
2026-05-05 14:58 50.00211 4.61635 34759 ft 436 kts 227°
2026-05-05 14:58 49.96539 4.54106 34868 ft 439 kts 237°
2026-05-05 14:59 49.93464 4.45887 34855 ft 439 kts 237°
2026-05-05 14:59 49.90409 4.37731 34844 ft 439 kts 237°
2026-05-05 15:00 49.87831 4.30868 34841 ft 440 kts 237°
2026-05-05 15:00 49.84229 4.21334 34842 ft 441 kts 236°
2026-05-05 15:01 49.81117 4.13129 34846 ft 441 kts 237°
2026-05-05 15:01 49.78006 4.04936 34850 ft 442 kts 236°
2026-05-05 15:02 49.74886 3.96745 34849 ft 442 kts 236°
2026-05-05 15:02 49.71770 3.88620 34856 ft 442 kts 236°
2026-05-05 15:03 49.68634 3.80434 34853 ft 442 kts 236°
2026-05-05 15:03 49.65492 3.72255 34850 ft 443 kts 236°
2026-05-05 15:04 49.62324 3.64071 34836 ft 444 kts 236°
2026-05-05 15:04 49.59175 3.55947 34847 ft 444 kts 236°
2026-05-05 15:05 49.54403 3.43662 34854 ft 445 kts 236°
2026-05-05 15:06 49.51208 3.35482 34840 ft 445 kts 236°
2026-05-05 15:06 49.48022 3.27334 34843 ft 445 kts 236°
2026-05-05 15:07 49.44816 3.19187 34841 ft 445 kts 236°
2026-05-05 15:07 49.41609 3.11046 34855 ft 446 kts 236°
2026-05-05 15:08 49.38390 3.02889 34844 ft 446 kts 236°
2026-05-05 15:08 49.35185 2.94803 34842 ft 446 kts 236°
2026-05-05 15:09 49.31950 2.86656 34845 ft 447 kts 236°
2026-05-05 15:09 49.28702 2.78516 34847 ft 447 kts 236°
2026-05-05 15:10 49.25454 2.70399 34845 ft 447 kts 236°
2026-05-05 15:10 49.22188 2.62271 34860 ft 448 kts 236°
2026-05-05 15:11 49.18942 2.54206 34860 ft 448 kts 236°
2026-05-05 15:11 49.15665 2.46098 34860 ft 448 kts 236°
2026-05-05 15:12 49.12992 2.37483 34855 ft 452 kts 252°
2026-05-05 15:12 49.11915 2.27986 34856 ft 455 kts 260°
2026-05-05 15:13 49.11037 2.18473 34868 ft 455 kts 259°
2026-05-05 15:13 49.10123 2.08911 34860 ft 455 kts 259°
2026-05-05 15:14 49.08437 1.99680 34858 ft 450 kts 243°
2026-05-05 15:14 49.05829 1.91016 34852 ft 450 kts 243°
2026-05-05 15:15 49.03211 1.82326 34858 ft 452 kts 243°
2026-05-05 15:15 49.00584 1.73624 34874 ft 453 kts 243°
2026-05-05 15:16 48.97938 1.64896 34871 ft 454 kts 243°
2026-05-05 15:16 48.95297 1.56229 34874 ft 454 kts 243°
2026-05-05 15:17 48.92634 1.47514 34875 ft 455 kts 243°
2026-05-05 15:17 48.89959 1.38788 34878 ft 455 kts 243°
2026-05-05 15:18 48.87272 1.30078 34890 ft 455 kts 243°
2026-05-05 15:18 48.84583 1.21373 34892 ft 455 kts 243°
2026-05-05 15:19 48.81915 1.12736 34892 ft 455 kts 243°
2026-05-05 15:19 48.79215 1.04053 34895 ft 455 kts 242°
2026-05-05 15:20 48.76502 0.95399 34897 ft 455 kts 242°
2026-05-05 15:20 48.73646 0.86866 34904 ft 452 kts 236°
2026-05-05 15:21 48.70363 0.78741 34899 ft 452 kts 236°
2026-05-05 15:21 48.67073 0.70625 34899 ft 452 kts 236°
2026-05-05 15:22 48.63778 0.62522 34903 ft 453 kts 236°
2026-05-05 15:22 48.60477 0.54418 34899 ft 453 kts 236°
2026-05-05 15:23 48.57167 0.46309 34897 ft 453 kts 236°
2026-05-05 15:23 48.53846 0.38224 34894 ft 453 kts 236°
2026-05-05 15:24 48.50534 0.30193 34898 ft 453 kts 236°
2026-05-05 15:24 48.47191 0.22112 34889 ft 453 kts 236°
2026-05-05 15:25 48.43854 0.14055 34900 ft 454 kts 236°
2026-05-05 15:25 48.40514 0.05974 34902 ft 454 kts 236°
2026-05-05 15:26 48.37165 -0.02073 34905 ft 454 kts 235°
2026-05-05 15:26 48.33673 -0.09890 34901 ft 453 kts 231°
2026-05-05 15:27 48.29866 -0.17419 34896 ft 452 kts 230°
2026-05-05 15:27 48.26011 -0.24899 34896 ft 452 kts 230°
2026-05-05 15:28 48.22192 -0.32410 34899 ft 452 kts 230°
2026-05-05 15:28 48.18371 -0.39906 34903 ft 452 kts 230°
2026-05-05 15:29 48.14543 -0.47389 34907 ft 452 kts 230°
2026-05-05 15:29 48.10707 -0.54852 34911 ft 452 kts 230°
2026-05-05 15:30 48.06887 -0.62264 34912 ft 452 kts 230°
2026-05-05 15:30 48.03045 -0.69697 34910 ft 452 kts 230°
2026-05-05 15:31 47.99191 -0.77139 34920 ft 452 kts 230°
2026-05-05 15:31 47.95337 -0.84579 34915 ft 453 kts 230°
2026-05-05 15:32 47.91474 -0.92005 34913 ft 453 kts 230°
2026-05-05 15:32 47.87617 -0.99376 34902 ft 453 kts 230°
2026-05-05 15:33 47.83735 -1.06774 34901 ft 453 kts 230°
2026-05-05 15:33 47.79859 -1.14163 34899 ft 453 kts 230°
2026-05-05 15:34 47.75976 -1.21549 34911 ft 453 kts 230°
2026-05-05 15:34 47.72074 -1.28940 34914 ft 454 kts 230°
2026-05-05 15:35 47.68175 -1.36305 34906 ft 454 kts 230°
2026-05-05 15:35 47.64270 -1.43674 34905 ft 454 kts 230°
2026-05-05 15:36 47.60386 -1.50983 34914 ft 454 kts 229°
2026-05-05 15:36 47.56319 -1.58116 34914 ft 453 kts 226°
2026-05-05 15:37 47.52054 -1.64967 34911 ft 452 kts 225°
2026-05-05 15:37 47.48491 -1.70649 34920 ft 453 kts 225°
2026-05-05 15:38 47.44246 -1.77552 34914 ft 453 kts 226°
2026-05-05 15:38 47.40026 -1.84491 34923 ft 453 kts 226°
2026-05-05 15:39 47.35785 -1.91298 34939 ft 452 kts 221°
2026-05-05 15:39 47.30708 -1.96648 34936 ft 448 kts 209°
2026-05-05 15:40 47.25359 -2.01412 34937 ft 449 kts 209°
2026-05-05 15:40 47.20004 -2.06185 34941 ft 450 kts 209°
2026-05-05 15:41 47.14644 -2.10959 34945 ft 450 kts 210°
2026-05-05 15:41 47.09333 -2.15687 34932 ft 448 kts 209°
2026-05-05 15:42 47.03988 -2.20429 34922 ft 448 kts 210°
2026-05-05 15:42 46.98650 -2.25155 34923 ft 448 kts 210°
2026-05-05 15:43 46.93302 -2.29874 34933 ft 448 kts 209°
2026-05-05 15:43 46.87991 -2.34535 34927 ft 448 kts 208°
2026-05-05 15:44 46.82647 -2.39238 34930 ft 448 kts 209°
2026-05-05 15:44 46.77306 -2.43936 34937 ft 448 kts 208°
2026-05-05 15:45 46.71959 -2.48612 34922 ft 449 kts 208°
2026-05-05 15:45 46.66584 -2.53297 34924 ft 450 kts 210°
2026-05-05 15:46 46.61214 -2.57984 34926 ft 450 kts 209°
2026-05-05 15:46 46.55834 -2.62671 34933 ft 451 kts 208°
2026-05-05 15:47 46.50477 -2.67313 34935 ft 451 kts 209°
2026-05-05 15:47 46.45087 -2.71973 34937 ft 451 kts 210°
2026-05-05 15:48 46.39685 -2.76638 34939 ft 452 kts 209°
2026-05-05 15:48 46.34287 -2.81294 34937 ft 452 kts 210°
2026-05-05 15:49 46.28877 -2.85950 34939 ft 453 kts 210°
2026-05-05 15:49 46.23786 -2.91343 34935 ft 455 kts 219°
2026-05-05 15:50 46.18954 -2.97259 34939 ft 455 kts 220°
2026-05-05 15:50 46.14115 -3.03164 34945 ft 456 kts 219°
2026-05-05 15:51 46.09300 -3.09015 34958 ft 456 kts 219°
2026-05-05 15:51 46.04442 -3.14914 34954 ft 456 kts 219°
2026-05-05 15:52 45.99587 -3.20792 34962 ft 456 kts 220°
2026-05-05 15:52 45.94722 -3.26664 34956 ft 456 kts 219°
2026-05-05 15:53 45.89857 -3.32525 34964 ft 456 kts 220°
2026-05-05 15:53 45.84997 -3.38367 34973 ft 456 kts 220°
2026-05-05 15:54 45.80163 -3.44166 34973 ft 456 kts 219°
2026-05-05 15:54 45.75294 -3.49990 34976 ft 456 kts 219°
2026-05-05 15:55 45.70426 -3.55798 34977 ft 456 kts 220°
2026-05-05 15:55 45.65543 -3.61607 34976 ft 456 kts 220°
2026-05-05 15:56 45.60665 -3.67404 34979 ft 456 kts 220°
2026-05-05 15:56 45.55783 -3.73187 34984 ft 456 kts 220°
2026-05-05 15:57 45.50924 -3.78918 34986 ft 456 kts 220°
2026-05-05 15:57 45.46046 -3.84689 34982 ft 456 kts 220°
2026-05-05 15:58 45.41152 -3.90460 34983 ft 456 kts 220°